Tracking 32422 objects as of 8-Dec-2025
HD Live streaming from Space Station
objects crossing your sky now

STARLINK-30412

Track STARLINK-30412 now!
10-day predictions
STARLINK-30412 is classified as:


NORAD ID: 57854
Int'l Code: 2023-141Q
Perigee: 482.0 km
Apogee: 482.7 km
Inclination: 53.2 °
Period: 94.1 minutes
Semi major axis: 6853 km
RCS: Unknown
Launch date: September 12, 2023
Source: United States (US)
Launch site: AIR FORCE WESTERN TEST RANGE (AFWTR)
Your satellite tracking list
Your tracking list is empty




NASA's NSSDC Master Catalog

Two Line Element Set (TLE):
1 57854U 23141Q   25340.75951401  .00004949  00000-0  17909-3 0  9991
2 57854  53.1602 355.5205 0000560 134.2896 225.8151 15.30204490126109
Source of the keplerian elements: AFSPC